Location: R�o Tuerlos
(40.6704°N, 4.4622°W)
Time: 17:57:03
(UTC+00:00)

IRS-1D - Pass Details

Date: 07 June 2020
Orbit: 740 x 817 km, 98.6° (Epoch: 13 July)

Event Time Altitude Azimuth Distance (km) Brightness Sun altitude
Rises 02:47:38 0° 10° (N) 3,323 7.9 -17.5°
Reaches altitude 10° 02:50:00 10° 7° (N) 2,379 7.0 -17.2°
Maximum altitude 02:55:12 65° 287° (WNW) 866 3.6 -16.6°
Enters shadow 02:58:00 27° 213° (SSW) 1,471 4.4 -16.3°
